Location: Azalea Creek
(37.1280°N, 119.2623°W)
Time: 01:14:34
(UTC+00:00)

Cosmos 1805 Rocket - Pass Details

Date: 17 February 2020
Orbit: 606 x 629 km, 82.5° (Epoch: 05 April)

Event Time Altitude Azimuth Distance (km) Brightness Sun altitude
Rises 02:45:01 0° 193° (SSW) 2,888 7.2 -14.0°
Reaches altitude 10° 02:47:16 10° 196° (SSW) 1,983 6.4 -14.5°
Maximum altitude 02:51:37 64° 278° (W) 688 4.0 -15.3°
Drops below altitude 10° 02:55:59 10° 0° (N) 1,983 6.1 -16.2°
Sets 02:58:14 0° 4° (N) 2,889 6.9 -16.7°
